パンスターズ彗星

C/2017 K2 ( PanSTARRS )

English version
Home page
Updated on February 9, 2023

---------------------------------------------------------------------

・ プロフィール

発見日 2017年5月21日
発見光度 20.8等
発見者 Pan-STARRS 1 telescope (Haleakala)

・ 写真集

・ 軌道要素

Epoch 2023 Feb. 25.0 TT = JDT 2460000.5
T 2022 Dec. 19.68887 TT                                 Rudenko
q   1.7968942            (2000.0)            P               Q
z  -0.0004370      Peri.  236.20153     +0.01818936     +0.04921870
 +/-0.0000001      Node    88.23602     -0.18087312     +0.98247054
e   1.0007853      Incl.   87.56336     -0.98333822     -0.17980310
>From 11440 observations 2013 May 12-2022 Dec. 30, mean residual 0".6.

・ 星図

・ 光度変化

        m1 = 4.0 + 5 logΔ + 7.5 log r

---------------------------------------------------------------------

軌道要素はM.P.E.C. 2023-C45に掲載されたものです。
星図はステラナビゲータ Ver.10 (アストロアーツ) で作成したものです。
光度グラフはComet for Windowsで作成したものです。

---------------------------------------------------------------------

Copyright(C) Seiichi Yoshida (comet@aerith.net). All rights reserved.